Temperature
21 21 21 21 21 21 20 20 20 20 20 20 20 20 20 20 20 20 20 20 20 20 19 19 19 19 19 19 19 19 19 19 19 19 19 19 19 19 19 18 18 18 17
22 21 21 21 21 21 21 21 21 21 21 20 20 20 20 20 20 20 20 20 20 20 20 20 20 20 20 20 20 20 20 20 19 19 19 19 19 19 19 19 18 18 18
22 22 21 21 21 21 21 21 21 21 21 21 21 21 21 20 20 20 20 20 20 20 20 20 20 20 20 20 20 20 20 20 19 19 19 19 19 19 19 19 19 19 18
22 22 22 21 21 21 21 21 21 21 21 21 21 21 20 20 20 20 20 20 20 20 20 20 20 20 20 20 20 20 20 20 19 19 19 19 19 19 19 19 19 19 19
22 22 22 22 21 21 21 21 21 21 21 21 21 21 20 20 20 20 20 20 20 20 20 20 20 20 20 20 19 19 19 19 19 19 19 18 18 18 18 18 18 19 19
23 22 22 22 22 21 21 21 21 21 21 21 21 21 20 20 20 20 20 20 20 20 19 19 19 19 19 19 19 19 19 19 19 19 18 18 18 18 18 18 18 18 18
23 23 22 22 22 21 21 21 21 21 21 21 21 21 20 20 20 20 20 20 20 20 20 20 19 19 19 19 19 19 19 19 19 19 18 18 18 18 18 18 18 18 18
23 23 22 22 22 21 21 21 21 21 21 21 21 20 20 20 20 20 19 19 19 19 20 20 19 19 19 19 19 19 19 19 18 18 18 18 18 18 18 18 18 18 17
23 22 22 22 22 21 21 21 21 21 21 21 21 20 20 20 20 20 19 19 19 19 19 19 19 19 19 19 19 19 19 19 18 18 18 18 18 18 18 18 18 17 17
22 22 22 22 22 21 21 21 21 21 21 21 20 20 20 20 20 20 20 19 19 19 19 19 19 19 19 19 19 19 18 18 18 18 18 18 18 18 18 18 18 17 17
22 22 22 22 22 22 21 21 21 21 21 21 20 20 20 20 20 20 20 19 19 19 19 19 19 19 18 18 18 18 18 18 18 18 18 18 18 18 18 18 18 18 18
23 22 22 22 22 22 21 21 21 21 21 21 21 21 20 20 20 20 20 19 19 19 19 19 19 18 18 18 18 18 18 18 18 18 18 18 18 18 18 18 18 18 18
23 23 23 23 22 22 21 21 21 21 21 21 21 21 20 20 20 20 20 19 19 19 19 19 18 18 18 18 18 18 18 18 18 18 18 18 18 18 18 18 18 18 18
23 23 23 22 22 22 22 21 21 21 21 21 21 20 20 20 20 20 20 19 19 19 19 18 18 18 18 18 18 18 18 18 18 18 18 18 18 18 18 18 18 18 18
23 23 22 22 22 22 21 21 21 21 21 21 20 20 19 19 19 19 19 19 19 18 18 18 18 18 18 18 18 18 18 18 18 18 18 18 18 18 18 18 18 18 18
23 23 22 22 21 21 21 21 20 20 20 20 19 19 19 19 18 19 19 19 19 19 18 18 18 18 18 18 18 18 18 18 18 18 18 18 18 18 18 18 18 18 18
23 23 22 22 21 21 20 20 20 19 19 19 19 19 19 18 18 18 18 19 19 19 18 18 18 18 18 18 18 18 18 18 18 18 18 18 18 19 19 18 18 18 18
23 23 22 22 21 21 20 20 19 19 19 18 18 18 18 18 18 18 18 18 18 18 18 18 18 18 18 18 18 18 18 18 18 18 18 18 18 18 19 19 19 19 18
23 22 22 22 21 21 20 20 19 19 19 18 18 18 18 17 17 17 17 17 17 17 18 18 18 18 18 18 18 18 18 18 18 18 18 18 18 19 19 19 19 19 19
22 22 22 22 21 21 20 20 20 19 19 19 18 18 17 17 17 17 17 17 17 17 17 17 17 18 18 18 18 18 18 18 18 18 18 18 18 19 19 19 19 19 19
22 22 22 22 21 21 21 20 20 19 19 19 18 18 17 17 17 17 17 17 17 17 17 17 17 17 17 17 17 17 18 18 18 18 18 18 18 19 19 19 19 19 19
23 23 22 22 21 21 21 20 20 19 19 18 17 17 17 17 17 17 17 17 17 17 17 17 16 16 17 17 17 17 17 17 18 18 18 18 18 19 19 19 19 19 19
23 23 22 22 21 21 20 20 19 19 18 17 17 17 16 16 16 16 16 16 16 16 16 16 16 16 16 16 16 16 16 16 17 17 18 18 18 18 18 18 18 18 18
23 22 22 21 21 20 20 19 19 18 17 17 16 16 16 16 16 16 16 16 16 16 16 16 16 15 15 15 16 16 16 16 15 16 16 17 17 17 17 17 17 17 17
23 22 22 21 21 20 20 19 18 18 17 16 16 16 16 16 16 15 15 15 15 15 15 15 15 15 15 15 15 15 15 15 15 15 15 16 16 16 16 16 16 16 16
22 22 21 21 21 20 20 19 18 17 17 16 16 15 15 15 15 15 15 15 14 14 14 14 14 14 14 14 15 15 15 15 15 15 14 15 15 15 15 15 15 15 16
Wind_Speed
7 11 21 20 19 18 17 16 17 18 18 18 18 17 16 15 14 13 12 11 10 9 9 9 9 8 8 8 9 10 11 11 11 12 12 13 13 12 11 12 12 11 13
12 16 22 21 20 19 18 17 17 17 17 16 16 16 15 14 13 12 11 10 9 9 8 8 8 8 8 8 8 9 9 9 9 9 10 10 10 10 11 11 11 10 13
14 16 20 21 20 19 18 18 17 17 16 16 15 14 14 13 12 11 10 9 9 8 8 8 7 7 7 7 7 8 8 8 7 8 7 6 7 8 10 10 11 11 12
14 15 18 21 20 20 19 18 18 17 16 15 14 13 13 12 11 10 10 9 8 8 7 7 7 7 7 7 7 7 7 7 7 7 5 4 4 6 8 10 11 11 12
11 14 18 22 20 20 19 19 18 17 17 15 14 13 12 11 10 9 9 8 8 7 7 7 7 7 7 7 7 7 7 7 7 7 5 5 4 5 8 10 11 11 12
12 14 17 22 20 20 19 18 18 17 16 15 13 12 11 10 10 9 8 8 8 8 8 8 8 8 8 8 8 8 7 8 7 5 5 6 6 8 10 12 12 13 13
12 12 16 21 20 19 19 18 17 16 15 13 12 11 10 10 9 9 9 9 9 9 9 9 9 9 9 9 9 9 9 9 8 7 7 8 9 10 12 15 15 15 15
12 11 14 21 20 18 18 17 16 15 14 13 12 11 10 10 9 9 10 10 10 11 11 11 11 11 11 11 11 11 11 10 9 9 9 10 11 12 13 16 19 19 18
8 8 9 15 17 18 17 16 15 14 13 13 12 11 10 10 10 10 11 11 12 12 13 13 13 13 13 13 12 12 12 12 11 9 9 9 11 13 14 15 19 21 21
8 8 6 9 12 13 14 16 15 14 13 13 12 12 11 11 12 12 12 13 14 14 14 15 15 15 15 14 14 14 14 13 12 12 11 11 14 15 16 16 18 22 22
9 8 7 6 7 9 11 14 15 15 14 14 13 13 13 11 11 11 12 14 15 16 16 17 17 17 16 15 16 16 15 12 12 12 12 14 15 16 17 18 18 21 23
13 12 10 9 7 7 10 11 10 11 11 12 11 11 11 10 11 12 12 16 17 17 18 18 19 18 16 13 14 16 13 13 13 13 14 17 18 18 18 19 20 21 23
11 11 12 11 8 8 6 6 7 8 8 10 11 12 11 10 10 11 10 12 14 16 14 15 16 15 14 13 13 13 14 14 13 14 16 19 19 19 20 20 21 22 23
9 11 9 10 10 10 7 4 5 5 6 7 10 11 10 7 7 8 8 10 11 11 11 12 10 13 13 14 14 13 14 13 13 13 16 20 20 21 21 21 21 22 23
9 10 9 9 10 9 7 5 4 5 6 8 9 11 12 8 9 7 7 9 11 11 10 8 8 9 9 11 11 12 12 14 15 15 14 19 21 21 21 21 21 21 22
10 9 7 9 8 7 7 6 4 5 7 8 10 12 13 11 8 8 9 8 9 11 11 8 8 9 9 8 10 11 11 12 12 14 16 17 20 21 22 22 22 22 23
8 8 8 8 7 7 7 7 6 6 8 7 10 13 14 14 12 9 9 10 9 12 11 9 9 8 9 9 10 11 10 10 11 13 15 15 16 18 21 22 22 23 23
7 8 8 9 9 9 8 8 6 7 7 7 9 11 13 14 14 9 10 10 10 10 8 9 9 9 9 9 9 9 9 9 12 12 14 14 15 16 17 20 21 22 23
8 8 8 8 9 9 9 7 6 5 5 6 7 7 9 11 11 8 9 9 9 8 8 10 9 8 9 10 10 10 9 10 11 12 12 13 15 16 16 16 19 21 22
8 8 8 8 7 7 5 3 3 3 4 4 4 5 7 6 8 6 7 8 7 7 8 8 10 9 9 9 11 10 9 10 10 11 13 12 12 16 16 16 15 16 20
6 7 7 7 6 4 2 2 2 3 3 3 4 5 6 6 7 5 6 6 6 7 8 9 9 10 10 7 6 7 8 10 12 11 11 11 13 14 14 14 14 14 14
8 8 7 7 5 4 2 2 1 1 2 3 3 5 7 7 7 6 6 6 6 7 8 9 9 7 7 6 6 6 5 5 8 11 11 12 13 11 12 12 12 12 13
8 8 7 6 5 3 3 2 1 2 2 3 3 4 5 7 8 7 8 7 7 7 8 9 9 10 9 7 9 7 5 7 4 4 7 9 9 8 9 8 10 10 12
9 5 5 5 4 3 4 3 2 2 3 3 3 5 7 7 7 7 8 8 8 7 9 10 10 9 11 9 7 9 9 5 5 4 3 5 7 8 8 8 8 8 9
6 4 4 5 4 4 4 4 4 3 3 3 4 6 6 6 7 7 8 8 9 8 10 11 11 11 10 11 9 7 10 9 9 8 6 4 4 5 6 7 6 6 5
3 3 5 6 5 5 5 5 5 5 4 4 5 5 6 6 6 7 8 8 9 9 10 11 11 12 11 12 10 9 8 6 7 9 10 7 5 3 3 3 2 2 1
Wind_Direction
167 165 163 161 155 149 144 140 135 132 132 132 134 135 135 136 137 138 137 133 129 126 123 120 120 121 120 119 117 117 120 125 127 128 129 130 130 129 127 126 127 129 130
156 163 164 163 158 153 150 146 142 139 138 138 139 139 139 140 140 140 140 140 137 134 131 129 129 129 130 129 127 127 129 131 134 137 137 136 137 139 139 137 138 139 137
150 162 165 164 160 157 156 153 149 147 146 145 145 144 145 145 146 147 148 148 148 145 142 141 140 139 140 140 140 141 142 144 147 151 146 136 143 153 159 153 153 149 146
151 160 164 166 164 163 162 160 157 155 154 154 153 152 151 151 153 155 157 159 161 161 160 160 159 158 157 158 157 157 157 159 164 165 157 168 174 167 171 168 166 163 159
152 160 168 169 169 169 168 166 164 163 163 163 162 162 163 164 166 168 170 174 179 181 183 183 183 180 180 182 183 183 183 183 186 181 180 198 217 201 186 180 180 179 174
158 162 172 172 174 174 174 172 171 170 170 170 171 172 176 180 184 187 191 195 199 203 206 208 209 205 203 203 205 207 209 212 213 211 211 219 225 225 213 202 196 194 191
161 164 177 176 178 179 179 178 176 176 177 178 180 184 189 196 202 207 211 214 218 222 225 226 228 227 225 225 226 227 228 231 227 225 233 238 239 236 230 223 213 206 202
162 162 178 180 182 184 185 184 183 182 183 186 191 196 202 209 217 223 226 229 232 234 236 238 239 240 240 241 241 241 241 243 245 236 237 242 247 246 242 236 223 214 210
154 159 176 183 187 190 191 192 191 191 192 195 200 207 214 221 228 235 239 242 244 246 247 248 249 250 250 250 251 252 253 252 251 246 247 246 248 252 253 249 231 218 215
156 168 175 181 186 189 194 198 199 200 202 205 210 217 224 231 236 242 246 248 252 254 255 256 258 258 258 258 257 259 260 262 260 256 253 252 253 255 256 257 244 225 219
176 184 183 182 184 185 191 203 204 207 210 213 219 225 230 234 240 247 252 253 256 259 261 262 262 263 263 263 261 261 263 259 261 263 261 259 258 257 257 257 253 237 225
189 193 195 195 189 185 198 206 207 210 213 215 217 226 233 232 236 246 251 255 258 260 263 264 263 263 263 261 261 262 259 257 260 263 264 264 263 262 260 258 254 247 233
191 194 199 201 198 197 205 204 208 213 216 219 221 223 229 237 243 248 249 254 257 260 261 260 261 257 251 248 250 251 252 255 258 261 263 264 263 263 262 260 255 251 243
187 198 197 200 204 208 208 211 214 220 226 230 233 231 229 236 243 246 247 249 248 251 252 252 253 253 250 248 247 247 249 250 252 255 258 262 263 263 263 264 261 257 251
193 197 193 195 206 210 210 218 222 229 236 242 246 241 234 237 244 244 246 247 246 246 247 248 252 253 252 253 251 248 247 247 248 250 256 260 262 262 264 266 266 264 260
196 195 188 195 200 202 212 219 236 239 241 244 246 245 238 238 242 244 248 247 245 244 244 244 249 253 254 251 253 250 248 250 248 248 251 257 260 261 263 266 268 266 262
190 184 186 195 190 198 211 221 229 238 242 244 248 247 242 239 242 242 244 246 244 241 240 241 243 245 248 246 247 248 248 248 246 247 250 253 258 260 259 260 263 263 262
169 174 186 198 190 201 209 218 227 236 240 245 249 251 249 246 244 241 244 247 245 241 238 238 238 241 244 244 243 244 243 242 246 246 248 249 252 256 256 254 255 257 258
156 160 170 182 188 201 208 215 225 235 241 247 251 253 257 257 254 246 248 253 251 247 244 246 239 231 240 243 243 243 241 244 247 249 247 246 247 248 251 252 251 252 255
154 159 167 178 190 189 191 207 234 255 258 258 261 267 275 275 275 265 259 261 259 256 252 244 243 235 235 239 248 250 241 238 239 241 246 248 248 250 251 252 251 253 252
159 166 174 181 190 169 151 174 220 258 274 287 292 298 306 302 297 283 278 275 267 260 258 252 249 246 243 236 242 256 253 243 241 241 241 245 248 249 250 250 252 251 253
184 189 191 191 186 179 163 161 185 240 275 282 300 311 310 311 307 303 290 285 277 270 267 260 251 251 246 218 218 235 258 259 239 237 235 238 244 247 250 251 249 246 248
208 205 197 191 184 174 153 109 59 12 337 322 315 311 311 313 309 301 296 291 285 275 271 265 254 249 250 232 215 216 222 236 250 245 234 236 239 239 242 244 248 248 248
223 212 198 185 171 161 151 155 174 228 268 269 287 292 303 304 307 307 305 301 293 284 275 271 263 251 247 245 229 222 225 214 222 257 247 236 235 236 239 243 248 249 248
225 204 193 177 175 174 169 174 187 217 238 273 289 294 301 304 305 309 308 305 299 291 282 274 268 257 247 244 234 222 229 232 229 235 254 246 235 237 239 246 253 253 249
236 199 186 185 193 189 184 189 199 219 247 280 296 303 308 307 304 306 310 304 298 292 286 280 272 262 252 246 240 229 220 219 218 223 235 239 240 241 240 252 252 252 255
Height
1510 1513 1516 1519 1522 1524 1527 1529 1531 1532 1534 1535 1537 1538 1539 1540 1541 1542 1542 1543 1544 1544 1545 1545 1546 1547 1547 1548 1548 1549 1549 1549 1549 1549 1549 1549 1550 1550 1551 1551 1552 1552 1553
1509 1512 1516 1519 1522 1525 1527 1530 1532 1533 1535 1537 1538 1539 1541 1542 1543 1544 1544 1545 1545 1546 1546 1547 1547 1548 1549 1549 1550 1550 1550 1551 1551 1551 1551 1551 1552 1552 1553 1553 1553 1554 1554
1510 1513 1516 1520 1523 1526 1528 1531 1533 1534 1536 1538 1539 1541 1542 1543 1544 1545 1546 1546 1547 1547 1548 1548 1549 1549 1550 1550 1551 1551 1552 1552 1552 1553 1553 1553 1553 1554 1554 1554 1555 1555 1556
1512 1514 1517 1521 1524 1527 1529 1531 1533 1535 1537 1539 1540 1542 1543 1544 1545 1546 1547 1547 1548 1548 1549 1549 1549 1550 1551 1551 1552 1552 1553 1553 1553 1554 1554 1554 1554 1554 1555 1555 1556 1556 1557
1513 1516 1519 1522 1525 1527 1530 1532 1534 1536 1538 1539 1541 1542 1544 1545 1546 1546 1547 1548 1548 1549 1549 1550 1550 1550 1551 1551 1552 1553 1553 1553 1553 1554 1554 1555 1555 1555 1555 1556 1556 1557 1558
1514 1517 1520 1523 1525 1528 1531 1533 1535 1537 1538 1540 1541 1543 1544 1545 1546 1546 1547 1548 1548 1549 1549 1550 1550 1550 1551 1551 1552 1552 1553 1553 1553 1553 1554 1554 1555 1555 1555 1555 1556 1556 1557
1515 1518 1521 1523 1526 1529 1531 1534 1536 1537 1539 1541 1542 1543 1544 1545 1545 1546 1546 1547 1548 1548 1549 1549 1550 1550 1550 1551 1551 1551 1552 1552 1552 1552 1553 1553 1554 1554 1554 1554 1555 1555 1556
1515 1518 1521 1524 1527 1529 1532 1534 1536 1538 1539 1541 1542 1543 1544 1544 1545 1545 1546 1546 1547 1547 1548 1548 1548 1549 1549 1549 1550 1550 1550 1550 1550 1550 1551 1551 1552 1552 1552 1553 1553 1554 1554
1516 1519 1521 1524 1527 1529 1532 1534 1536 1538 1539 1540 1542 1543 1543 1544 1544 1545 1545 1545 1546 1546 1546 1547 1547 1547 1548 1548 1548 1548 1548 1548 1548 1548 1548 1548 1549 1549 1550 1550 1551 1552 1552
1517 1519 1522 1524 1527 1529 1531 1533 1535 1537 1538 1540 1541 1542 1542 1543 1543 1544 1544 1544 1545 1545 1545 1545 1545 1546 1546 1546 1546 1546 1546 1546 1546 1546 1546 1545 1546 1546 1546 1547 1548 1549 1550
1516 1519 1521 1524 1526 1528 1530 1532 1534 1535 1537 1538 1539 1540 1541 1542 1542 1542 1543 1543 1543 1543 1543 1543 1543 1543 1543 1543 1544 1544 1544 1543 1543 1543 1542 1542 1543 1543 1543 1544 1545 1546 1547
1515 1518 1520 1523 1526 1528 1529 1531 1532 1533 1535 1536 1537 1538 1539 1540 1540 1540 1541 1541 1541 1541 1541 1541 1541 1541 1540 1540 1540 1541 1540 1540 1540 1539 1539 1539 1539 1539 1539 1540 1541 1542 1543
1515 1518 1520 1522 1525 1527 1528 1529 1531 1532 1533 1534 1535 1536 1537 1537 1537 1537 1538 1538 1538 1538 1538 1538 1539 1538 1538 1538 1538 1537 1537 1536 1536 1535 1535 1536 1536 1536 1536 1536 1537 1538 1539
1515 1517 1520 1522 1524 1526 1527 1528 1529 1530 1531 1532 1533 1534 1534 1534 1534 1534 1534 1534 1534 1535 1535 1535 1535 1535 1535 1534 1534 1534 1533 1532 1532 1532 1532 1533 1533 1533 1533 1533 1533 1534 1535
1514 1517 1520 1522 1523 1525 1526 1527 1527 1528 1529 1530 1530 1531 1531 1530 1530 1530 1530 1530 1530 1530 1530 1530 1530 1530 1530 1530 1529 1529 1529 1529 1529 1529 1529 1529 1529 1529 1530 1529 1530 1530 1531
1514 1516 1519 1521 1522 1523 1524 1525 1526 1526 1526 1527 1527 1527 1527 1526 1526 1526 1526 1525 1525 1525 1525 1525 1524 1524 1525 1525 1524 1524 1524 1524 1524 1525 1525 1525 1525 1525 1525 1525 1525 1525 1526
1513 1515 1518 1519 1521 1522 1523 1523 1524 1524 1524 1523 1523 1523 1522 1521 1521 1520 1519 1519 1518 1519 1518 1518 1518 1518 1518 1518 1517 1518 1518 1518 1519 1519 1519 1519 1519 1519 1520 1520 1520 1520 1521
1512 1514 1516 1518 1519 1520 1521 1521 1521 1521 1520 1519 1518 1518 1517 1516 1515 1514 1512 1511 1511 1511 1511 1511 1510 1510 1510 1510 1510 1511 1511 1512 1513 1513 1513 1513 1513 1513 1513 1514 1514 1514 1515
1511 1513 1515 1516 1517 1518 1518 1519 1518 1518 1517 1516 1515 1513 1512 1510 1509 1507 1505 1504 1504 1503 1502 1502 1502 1502 1502 1502 1503 1503 1504 1505 1505 1506 1506 1506 1506 1506 1506 1506 1507 1507 1508
1511 1512 1514 1515 1515 1516 1516 1516 1516 1516 1515 1513 1511 1509 1507 1505 1503 1501 1499 1498 1497 1495 1495 1495 1494 1494 1494 1494 1495 1495 1495 1496 1497 1497 1498 1499 1499 1499 1499 1499 1499 1500 1500
1510 1511 1512 1513 1513 1514 1514 1514 1514 1513 1512 1510 1507 1505 1502 1499 1497 1495 1493 1491 1490 1488 1487 1487 1487 1486 1486 1487 1488 1487 1487 1488 1488 1489 1490 1490 1491 1491 1491 1491 1491 1491 1492
1509 1509 1510 1510 1511 1512 1512 1512 1511 1510 1508 1505 1502 1500 1497 1494 1491 1488 1486 1484 1482 1481 1480 1480 1479 1478 1478 1480 1480 1480 1479 1479 1479 1480 1481 1482 1482 1483 1483 1483 1483 1483 1484
1507 1507 1508 1508 1509 1510 1510 1509 1508 1506 1504 1501 1498 1495 1492 1488 1485 1482 1480 1477 1475 1474 1472 1472 1471 1471 1470 1471 1472 1474 1473 1470 1471 1471 1472 1473 1474 1475 1475 1475 1475 1475 1476
1505 1505 1506 1507 1507 1507 1507 1506 1504 1502 1499 1496 1493 1490 1487 1483 1480 1477 1474 1471 1469 1467 1465 1463 1463 1462 1462 1462 1463 1464 1465 1465 1466 1464 1464 1465 1466 1467 1467 1467 1468 1468 1469
1503 1503 1504 1504 1504 1504 1503 1502 1500 1498 1495 1492 1489 1485 1482 1479 1476 1472 1468 1465 1462 1460 1457 1455 1454 1454 1453 1454 1454 1455 1456 1457 1457 1458 1457 1457 1458 1459 1460 1460 1460 1461 1462
1500 1501 1501 1501 1501 1501 1500 1499 1497 1494 1491 1488 1485 1481 1478 1474 1471 1467 1463 1460 1456 1453 1450 1448 1446 1445 1445 1445 1446 1447 1447 1448 1448 1449 1450 1450 1451 1453 1453 1454 1454 1454 1455